Location: *
(51.1248°S, 108.4023°W)
Time: 22:02:56
(UTC+00:00)

Cosmos 2278 Rocket - Pass Details

Date: 25 October 2021
Orbit: 841 x 845 km, 71.0° (Epoch: 30 November)

Event Time Altitude Azimuth Distance (km) Brightness Sun altitude
Exits shadow 07:59:35 24° 269° (W) 1,682 3.6 -25.2°
Maximum altitude 08:01:59 34° 226° (SW) 1,379 3.5 -25.1°
Drops below altitude 10° 08:07:11 10° 161° (SSE) 2,499 5.7 -24.9°
Sets 08:09:54 0° 151° (SSE) 3,440 6.7 -24.7°
